EW6055 Weather Reports


Display with metric or nautical units.
time (UTC)temp
F
wind
direction
speed
MPH
gust
MPH
rain 1hr
in
rain 24hr
in
rain mn
in
humidity
%
barometer
mb
20260505230003 65 265 0.0 3.0 0.00 0.00 0.00 66 1014.0
20260505225503 65 0 0.0 0.0 0.00 0.00 0.00 66 1014.0
20260505225003 65 284 0.0 2.0 0.00 0.00 0.00 67 1014.0
20260505224502 65 280 1.0 4.0 0.00 0.00 0.00 67 1014.1
20260505224024 65 267 1.0 4.0 0.00 0.00 0.00 67 1014.1
20260505223523 65 261 1.0 3.0 0.00 0.00 0.00 67 1014.2
20260505223024 65 271 1.0 3.0 0.00 0.00 0.00 67 1014.2
20260505222502 65 300 1.0 5.0 0.00 0.00 0.00 68 1014.2
20260505222003 65 292 1.0 5.0 0.00 0.00 0.00 67 1014.2
20260505221503 65 258 1.0 4.0 0.00 0.00 0.00 67 1014.2
20260505221024 65 266 1.0 4.0 0.00 0.00 0.00 67 1014.2
20260505220503 65 278 1.0 4.0 0.00 0.00 0.00 67 1014.3
20260505220002 65 276 0.0 3.0 0.00 0.00 0.00 68 1014.3
20260505215502 65 264 0.0 1.0 0.00 0.00 0.00 68 1014.2
20260505215024 65 240 0.0 3.0 0.00 0.00 0.00 68 1014.3
20260505214524 65 258 1.0 4.0 0.00 0.00 0.00 68 1014.3
20260505214002 64 260 1.0 4.0 0.00 0.00 0.00 69 1014.3
20260505213503 64 235 1.0 3.0 0.00 0.00 0.00 68 1014.3
20260505213002 64 270 1.0 3.0 0.00 0.00 0.00 68 1014.4
20260505212524 64 296 0.0 3.0 0.00 0.00 0.00 68 1014.3
20260505212024 64 259 0.0 3.0 0.00 0.00 0.00 69 1014.4
20260505211502 64 243 1.0 3.0 0.00 0.00 0.00 68 1014.4
20260505211023 64 263 1.0 3.0 0.00 0.00 0.00 69 1014.5
20260505210524 64 286 1.0 3.0 0.00 0.00 0.00 69 1014.5
20260505210024 64 0 0.0 0.0 0.00 0.00 0.00 70 1014.5
20260505205503 64 237 0.0 2.0 0.00 0.00 0.00 70 1014.4
20260505205003 63 233 1.0 3.0 0.00 0.00 0.00 70 1014.5
20260505204524 63 246 1.0 3.0 0.00 0.00 0.00 70 1014.6
20260505204003 63 282 0.0 2.0 0.00 0.00 0.00 70 1014.6
20260505203502 63 0 0.0 0.0 0.00 0.00 0.00 71 1014.6
20260505203003 63 295 1.0 3.0 0.00 0.00 0.00 70 1014.7
20260505202503 63 295 1.0 3.0 0.00 0.00 0.00 70 1014.7
20260505202003 63 278 0.0 1.0 0.00 0.00 0.00 71 1014.7
20260505201503 63 0 0.0 0.0 0.00 0.00 0.00 71 1014.7
20260505201024 63 0 0.0 0.0 0.00 0.00 0.00 71 1014.8
20260505200503 63 115 0.0 3.0 0.00 0.00 0.00 71 1014.8
20260505200023 63 166 1.0 3.0 0.00 0.00 0.00 71 1014.8
20260505195503 63 221 1.0 3.0 0.00 0.00 0.00 71 1014.8
20260505195024 63 221 1.0 2.0 0.00 0.00 0.00 71 1014.8
20260505194503 63 207 1.0 2.0 0.00 0.00 0.00 70 1014.8
20260505194003 63 193 0.0 2.0 0.00 0.00 0.00 71 1014.8
20260505193503 63 0 0.0 0.0 0.00 0.00 0.00 71 1014.8
20260505193003 62 177 0.0 3.0 0.00 0.00 0.00 73 1014.9
20260505192503 62 185 1.0 3.0 0.00 0.00 0.00 72 1014.9
20260505192024 62 192 0.0 2.0 0.00 0.00 0.00 73 1014.8
20260505191503 62 0 0.0 0.0 0.00 0.00 0.00 73 1014.8
20260505191002 61 0 0.0 0.0 0.00 0.00 0.00 74 1014.8
20260505190503 61 109 0.0 1.0 0.00 0.00 0.00 74 1014.8
20260505190003 61 132 0.0 3.0 0.00 0.00 0.00 73 1014.9
20260505185503 61 148 1.0 3.0 0.00 0.00 0.00 73 1014.8
20260505185003 61 178 1.0 2.0 0.00 0.00 0.00 74 1014.9
20260505184503 61 200 1.0 2.0 0.00 0.00 0.00 74 1014.9
20260505184024 61 232 1.0 2.0 0.00 0.00 0.00 75 1014.9
20260505183503 61 240 1.0 3.0 0.00 0.00 0.00 75 1015.0
20260505183003 61 239 0.0 3.0 0.00 0.00 0.00 75 1014.9
20260505182524 60 235 0.0 2.0 0.00 0.00 0.00 76 1014.8
20260505182002 60 202 1.0 2.0 0.00 0.00 0.00 77 1014.8
20260505181502 60 210 1.0 2.0 0.00 0.00 0.00 77 1014.8
20260505181003 60 211 1.0 2.0 0.00 0.00 0.00 78 1014.8
20260505180503 59 173 0.0 1.0 0.00 0.00 0.00 78 1014.8
20260505180003 59 247 1.0 3.0 0.00 0.00 0.00 78 1014.8
20260505175503 59 231 1.0 3.0 0.00 0.00 0.00 79 1014.8
20260505175003 59 210 1.0 3.0 0.00 0.00 0.00 79 1014.8
20260505174503 58 211 1.0 2.0 0.00 0.00 0.00 79 1014.8
20260505174003 58 201 1.0 2.0 0.00 0.00 0.00 80 1014.7
20260505173524 58 190 1.0 2.0 0.00 0.00 0.00 80 1014.7
20260505173024 58 196 1.0 2.0 0.00 0.00 0.00 81 1014.7
20260505172503 58 210 1.0 2.0 0.00 0.00 0.00 82 1014.7
20260505172024 57 208 1.0 5.0 0.00 0.00 0.00 83 1014.6
20260505171503 57 152 1.0 5.0 0.00 0.00 0.00 85 1014.6
20260505171003 56 133 1.0 4.0 0.00 0.00 0.00 85 1014.6
20260505170524 56 139 1.0 3.0 0.00 0.00 0.00 86 1014.6
20260505170003 56 172 1.0 3.0 0.00 0.00 0.00 86 1014.6
20260505165524 56 193 1.0 3.0 0.00 0.00 0.00 87 1014.5
20260505165003 56 231 1.0 3.0 0.00 0.00 0.00 87 1014.5
20260505164524 55 228 1.0 3.0 0.00 0.00 0.00 87 1014.5
20260505164002 55 214 0.0 3.0 0.00 0.00 0.00 87 1014.5
20260505163503 55 0 0.0 0.0 0.00 0.00 0.00 88 1014.5
20260505163003 55 0 0.0 0.0 0.00 0.00 0.00 88 1014.4
20260505162503 55 0 0.0 0.0 0.00 0.00 0.00 89 1014.3
20260505162002 55 0 0.0 0.0 0.00 0.00 0.00 90 1014.4
20260505161503 54 0 0.0 0.0 0.00 0.00 0.00 90 1014.3
20260505161024 54 0 0.0 0.0 0.00 0.00 0.00 90 1014.3
20260505160502 54 0 0.0 0.0 0.00 0.00 0.00 90 1014.3
20260505153024 53 0 0.0 0.0 0.00 0.00 0.00 92 1014.3
20260505152524 53 0 0.0 0.0 0.00 0.00 0.00 92 1014.2
20260505152002 53 0 0.0 0.0 0.00 0.00 0.00 92 1014.3
20260505151524 53 0 0.0 0.0 0.00 0.00 0.00 92 1014.2
20260505151003 53 0 0.0 0.0 0.00 0.00 0.00 92 1014.2
20260505150503 53 0 0.0 0.0 0.00 0.00 0.00 92 1014.2
20260505140503 53 0 0.0 0.0 0.00 0.00 0.00 90 1013.7
20260505125003 53 179 1.0 2.0 0.00 0.00 0.00 88 1013.2
20260505124524 53 168 0.0 2.0 0.00 0.00 0.00 88 1013.2
20260505124003 53 186 0.0 1.0 0.00 0.00 0.00 88 1013.2
20260505123503 53 0 0.0 0.0 0.00 0.00 0.00 88 1013.2
20260505123003 53 198 0.0 2.0 0.00 0.00 0.00 88 1013.1
20260505122503 53 178 0.0 2.0 0.00 0.00 0.00 88 1013.1
20260505122003 53 172 0.0 2.0 0.00 0.00 0.00 88 1013.2
20260505121503 53 200 0.0 1.0 0.00 0.00 0.00 88 1013.2
20260505121003 53 0 0.0 0.0 0.00 0.00 0.00 88 1013.1
20260505120503 53 0 0.0 0.0 0.00 0.00 0.00 88 1013.1
20260505120003 53 0 0.0 0.0 0.00 0.00 0.00 88 1013.1
20260505115524 53 213 0.0 1.0 0.00 0.00 0.00 88 1013.0
20260505114503 53 210 0.0 2.0 0.00 0.00 0.00 89 1013.0
20260505114003 53 202 0.0 2.0 0.00 0.00 0.00 89 1013.0
20260505113503 53 204 0.0 2.0 0.00 0.00 0.00 89 1013.0
20260505113003 53 210 1.0 3.0 0.00 0.00 0.00 88 1013.1
20260505112503 53 203 1.0 3.0 0.00 0.00 0.00 88 1013.0
20260505112003 53 192 0.0 2.0 0.00 0.00 0.00 88 1012.9
20260505111503 53 0 0.0 0.0 0.00 0.00 0.00 88 1012.9
20260505111024 53 0 0.0 0.0 0.00 0.00 0.00 88 1012.9
20260505110503 53 198 0.0 1.0 0.00 0.00 0.00 88 1012.9
20260505102003 53 183 1.0 2.0 0.00 0.00 0.00 88 1012.5
20260505101503 53 184 0.0 2.0 0.00 0.00 0.00 88 1012.4
20260505101003 53 201 0.0 2.0 0.00 0.00 0.00 88 1012.5
20260505100524 53 195 0.0 2.0 0.00 0.00 0.00 89 1012.5
20260505100003 53 200 1.0 2.0 0.00 0.00 0.00 89 1012.5
20260505095503 53 206 0.0 2.0 0.00 0.00 0.00 89 1012.5
20260505095003 53 0 0.0 0.0 0.00 0.00 0.00 89 1012.5
20260505094524 53 153 0.0 1.0 0.00 0.00 0.00 89 1012.5
20260505094003 53 153 0.0 1.0 0.00 0.00 0.00 89 1012.4
20260505093503 53 168 0.0 2.0 0.00 0.00 0.00 89 1012.3
20260505093003 53 183 0.0 2.0 0.00 0.00 0.00 89 1012.3
20260505092503 53 197 0.0 2.0 0.00 0.00 0.00 89 1012.2
20260505092024 53 196 1.0 2.0 0.00 0.00 0.00 89 1012.2
20260505091503 53 190 1.0 1.0 0.00 0.00 0.00 89 1012.2
20260505091003 53 190 1.0 2.0 0.00 0.00 0.00 89 1012.1
20260505090503 53 191 1.0 2.0 0.00 0.00 0.00 88 1012.2
20260505090003 53 188 0.0 2.0 0.00 0.00 0.00 88 1012.1
20260505085503 53 0 0.0 0.0 0.00 0.00 0.00 88 1012.1
20260505085024 53 212 1.0 2.0 0.00 0.00 0.00 88 1012.1
20260505084503 53 199 1.0 2.0 0.00 0.00 0.00 88 1012.0
20260505084024 53 189 1.0 2.0 0.00 0.00 0.00 87 1012.0
20260505083503 53 207 1.0 3.0 0.00 0.00 0.00 87 1012.0
20260505083003 53 203 1.0 3.0 0.00 0.00 0.00 87 1012.0
20260505082503 53 191 1.0 2.0 0.00 0.00 0.00 87 1012.0
20260505082003 54 215 0.0 2.0 0.00 0.00 0.00 87 1012.0
20260505081503 54 206 1.0 2.0 0.00 0.00 0.00 87 1012.0
20260505081003 54 203 1.0 3.0 0.00 0.00 0.00 86 1011.9
20260505080503 54 199 1.0 3.0 0.00 0.00 0.00 86 1011.9
20260505080003 54 193 1.0 3.0 0.00 0.00 0.00 86 1011.8
20260505075503 54 196 1.0 3.0 0.00 0.00 0.00 86 1011.7
20260505075003 54 191 1.0 3.0 0.00 0.00 0.00 86 1011.8
20260505074503 54 191 1.0 2.0 0.00 0.00 0.00 85 1011.7
20260505074003 54 191 1.0 4.0 0.00 0.00 0.00 86 1011.5
20260505073503 54 193 1.0 4.0 0.00 0.00 0.00 85 1011.5
20260505073003 54 198 1.0 7.0 0.00 0.00 0.00 85 1011.5
20260505072503 54 192 1.0 7.0 0.00 0.00 0.00 85 1011.5
20260505072024 54 190 1.0 6.0 0.00 0.00 0.00 85 1011.4
20260505071503 54 191 1.0 6.0 0.00 0.00 0.00 84 1011.3
20260505071003 55 194 2.0 6.0 0.00 0.00 0.00 84 1011.2
20260505070503 55 192 2.0 6.0 0.00 0.00 0.00 84 1011.2
20260505070024 55 185 1.0 6.0 0.00 0.00 0.00 84 1011.1
20260505065525 55 181 1.0 4.0 0.00 0.00 0.00 83 1011.0
20260505065003 55 181 1.0 4.0 0.00 0.00 0.00 83 1011.0
20260505064525 55 186 1.0 3.0 0.00 0.00 0.00 83 1011.0
20260505064024 55 189 1.0 5.0 0.00 0.00 0.00 83 1010.9
20260505063524 55 178 1.0 5.0 0.00 0.00 0.00 82 1010.8
20260505063003 56 154 1.0 5.0 0.00 0.00 0.00 82 1010.9
20260505062503 56 160 1.0 6.0 0.00 0.00 0.00 82 1010.8
20260505062024 56 159 1.0 6.0 0.00 0.00 0.00 81 1010.7
20260505061503 56 151 1.0 4.0 0.00 0.00 0.00 81 1010.7
20260505061003 57 181 1.0 4.0 0.00 0.00 0.00 81 1010.7
20260505060503 57 185 2.0 9.0 0.00 0.00 0.00 80 1010.7
20260505060003 57 179 1.0 9.0 0.00 0.00 0.00 80 1010.7
20260505055503 57 173 1.0 5.0 0.00 0.00 0.00 80 1010.7
20260505055025 58 170 1.0 8.0 0.00 0.00 0.00 79 1010.7
20260505054503 58 177 1.0 8.0 0.00 0.00 0.00 79 1010.6
20260505054004 58 189 1.0 5.0 0.00 0.00 0.00 79 1010.6
20260505053503 59 188 1.0 8.0 0.00 0.00 0.00 78 1010.5
20260505053024 59 187 2.0 9.0 0.00 0.00 0.00 78 1010.4
20260505052503 59 189 3.0 11.0 0.00 0.00 0.00 78 1010.4
20260505052003 60 190 2.0 11.0 0.00 0.00 0.00 77 1010.4
20260505051503 60 187 2.0 9.0 0.00 0.00 0.00 77 1010.4
20260505051003 60 182 2.0 9.0 0.00 0.00 0.00 76 1010.4
20260505050503 60 180 3.0 10.0 0.00 0.00 0.00 76 1010.3
20260505041503 64 182 1.0 3.0 0.00 0.00 0.00 71 1009.6
20260505041003 64 183 1.0 2.0 0.00 0.00 0.00 71 1009.5
20260505040503 64 186 1.0 2.0 0.00 0.00 0.00 71 1009.4
20260505040004 65 190 1.0 2.0 0.00 0.00 0.00 70 1009.3
20260505035503 65 189 1.0 2.0 0.00 0.00 0.00 70 1009.3
20260505035003 65 191 1.0 2.0 0.00 0.00 0.00 71 1009.2
20260505034524 66 187 1.0 3.0 0.00 0.00 0.00 71 1009.1
20260505034025 66 191 1.0 3.0 0.00 0.00 0.00 70 1009.0
20260505033503 66 206 1.0 3.0 0.00 0.00 0.00 69 1009.0
20260505033003 67 198 1.0 3.0 0.00 0.00 0.00 69 1009.0
20260505032524 67 192 1.0 2.0 0.00 0.00 0.00 69 1008.9
20260505032003 67 193 1.0 4.0 0.00 0.00 0.00 69 1008.8
20260505031503 68 195 1.0 4.0 0.00 0.00 0.00 68 1008.8
20260505031003 68 202 1.0 4.0 0.00 0.00 0.00 67 1008.8
20260505030503 69 200 1.0 4.0 0.00 0.00 0.00 67 1008.7
20260505030004 69 194 1.0 2.0 0.00 0.00 0.00 67 1008.7
20260505025524 70 181 1.0 3.0 0.00 0.00 0.00 67 1008.6
20260505025003 70 154 1.0 5.0 0.00 0.00 0.00 67 1008.6
20260505024503 70 160 1.0 5.0 0.00 0.00 0.00 67 1008.5
20260505024003 70 150 1.0 2.0 0.00 0.00 0.00 66 1008.5
20260505023503 70 130 1.0 2.0 0.00 0.00 0.00 65 1008.5
20260505023003 71 143 1.0 3.0 0.00 0.00 0.00 65 1008.5
20260505022503 71 167 0.0 3.0 0.00 0.00 0.00 65 1008.5
20260505022004 71 166 0.0 3.0 0.00 0.00 0.00 65 1008.5
20260505021503 71 135 1.0 3.0 0.00 0.00 0.00 65 1008.5
20260505021004 71 118 1.0 3.0 0.00 0.00 0.00 64 1008.5
20260505020503 72 122 1.0 3.0 0.00 0.00 0.00 63 1008.4
20260505020003 72 157 1.0 3.0 0.00 0.00 0.00 63 1008.5
20260505015503 72 156 1.0 2.0 0.00 0.00 0.00 63 1008.5
20260505015024 72 136 1.0 2.0 0.00 0.00 0.00 63 1008.5
20260505014503 72 173 1.0 2.0 0.00 0.00 0.00 62 1008.5
20260505014003 72 177 1.0 3.0 0.00 0.00 0.00 62 1008.6
20260505013503 72 182 1.0 4.0 0.00 0.00 0.00 63 1008.5
20260505013003 72 187 1.0 4.0 0.00 0.00 0.00 62 1008.6
20260505012524 72 176 1.0 2.0 0.00 0.00 0.00 62 1008.7
20260505012003 72 166 1.0 3.0 0.00 0.00 0.00 62 1008.7
20260505011503 72 176 1.0 3.0 0.00 0.00 0.00 61 1008.8
20260505011024 73 181 1.0 3.0 0.00 0.00 0.00 61 1008.9
20260505010503 73 158 1.0 3.0 0.00 0.00 0.00 62 1008.9
20260505010024 72 148 1.0 3.0 0.00 0.00 0.00 61 1008.9
20260505005503 72 173 1.0 2.0 0.00 0.00 0.00 61 1008.9
20260505005024 72 183 1.0 2.0 0.00 0.00 0.00 61 1008.9
20260505004503 72 172 1.0 2.0 0.00 0.00 0.00 61 1008.9
20260505004003 72 179 1.0 2.0 0.00 0.00 0.00 61 1009.0
20260505003503 72 181 1.0 5.0 0.00 0.00 0.00 61 1009.0
20260505003024 73 178 1.0 5.0 0.00 0.00 0.00 60 1009.1
20260505002504 73 178 1.0 3.0 0.00 0.00 0.00 60 1009.1
20260505002006 73 184 1.0 3.0 0.00 0.00 0.00 60 1009.1
20260505001525 73 191 1.0 3.0 0.00 0.00 0.00 60 1009.1
20260505001003 73 187 1.0 2.0 0.00 0.00 0.00 60 1009.1
20260505000524 73 185 1.0 3.0 0.00 0.00 0.00 60 1009.1
20260505000004 73 194 1.0 3.0 0.00 0.00 0.00 61 1009.1
20260504235524 73 196 1.0 3.0 0.00 0.00 0.00 60 1009.1
20260504235004 73 182 1.0 3.0 0.00 0.00 0.00 60 1009.2
20260504234504 73 186 1.0 2.0 0.00 0.00 0.00 60 1009.3
20260504234003 73 183 1.0 4.0 0.00 0.00 0.00 60 1009.3
20260504233503 72 185 1.0 4.0 0.00 0.00 0.00 60 1009.3
20260504233003 73 211 1.0 5.0 0.00 0.00 0.00 59 1009.4
20260504232503 73 205 1.0 5.0 0.00 0.00 0.00 58 1009.4
20260504232003 73 192 1.0 4.0 0.00 0.00 0.00 58 1009.4
20260504231524 73 183 1.0 3.0 0.00 0.00 0.00 58 1009.5
20260504231003 73 147 1.0 6.0 0.00 0.00 0.00 60 1009.6
20260504230504 73 120 1.0 6.0 0.00 0.00 0.00 59 1009.6